Dewpoint
53 53 54 55 56 56 56 56 55 56 56 56 56 55 55 56 57 55 56 58 57 56 55 55 54 54 54 55 56 55 57 60 56 55 55 55 57 54 56 55 54 56 60 57 56 58 57 56 56 56 56 56 56 55 56 57 57 57 57 57 57 55 54 56 56 58 58 58 58 59 59 60 62 61 61 62 62 63 64 64 65 65 65 65 65
53 52 53 54 55 56 56 56 58 55 55 56 56 56 55 55 56 55 56 57 56 56 58 57 55 55 54 54 56 56 56 56 55 55 57 58 55 55 56 55 54 55 59 59 57 56 56 56 56 56 56 57 56 56 56 57 55 56 56 56 56 55 54 56 55 58 57 56 56 57 57 59 61 60 60 61 61 62 63 63 64 64 64 65 65
51 52 52 54 55 55 56 56 56 55 55 57 56 56 56 56 55 55 56 56 56 57 56 56 57 58 57 56 56 57 56 57 57 58 58 56 53 54 56 54 54 55 56 60 57 56 56 56 56 56 56 57 54 54 54 54 55 55 56 56 54 54 55 56 55 57 56 57 57 56 54 55 57 58 60 60 61 61 62 62 62 62 62 63 65
50 50 51 53 54 55 55 55 56 55 56 56 56 56 56 58 56 55 56 56 56 58 59 56 59 59 59 59 58 58 58 63 57 56 55 54 53 53 53 54 55 55 56 57 57 56 56 56 56 56 55 57 54 54 53 53 54 55 55 56 54 52 52 53 57 56 56 57 55 55 54 53 53 55 56 59 59 60 60 60 60 60 62 62 63
50 50 51 53 54 55 56 56 55 55 56 56 57 57 57 57 57 57 57 57 57 60 59 58 61 58 57 59 57 57 56 54 54 55 54 57 58 54 52 54 55 56 56 56 61 56 55 56 56 56 56 56 55 53 53 54 54 54 54 55 54 53 51 52 53 57 55 58 57 56 54 53 53 56 55 56 58 60 59 59 60 58 60 62 62
51 51 51 52 53 54 55 56 56 56 56 57 57 58 57 58 57 57 56 56 57 58 58 59 60 57 56 55 54 51 53 53 54 53 53 53 53 53 54 54 54 56 55 56 57 61 55 55 56 56 56 56 56 53 53 54 54 55 55 54 54 54 52 51 51 54 56 56 56 58 59 55 55 56 54 51 57 59 58 58 59 58 59 61 61
50 51 51 53 53 54 54 55 56 56 57 57 57 58 58 58 58 58 57 57 57 58 58 60 57 56 56 55 54 54 54 53 53 54 55 54 55 55 55 54 54 55 56 56 56 59 56 55 55 56 56 56 58 54 53 53 54 55 57 54 55 55 52 51 52 52 53 53 54 55 57 59 59 55 53 54 51 55 57 56 58 57 58 59 59
50 51 52 53 53 54 55 56 56 57 57 57 57 58 58 59 58 58 58 59 58 58 58 59 57 56 56 55 56 54 55 56 55 56 57 59 58 57 55 54 54 54 55 55 56 58 60 56 55 55 55 56 58 54 54 54 53 54 56 54 55 55 53 52 51 52 51 51 55 54 54 56 57 56 56 55 53 52 52 54 57 56 57 58 59
51 52 52 53 54 55 55 55 57 57 57 58 58 58 58 58 59 58 58 58 58 58 59 58 59 57 56 56 55 58 56 57 58 60 59 57 57 56 54 55 54 54 54 55 55 56 61 57 55 55 55 56 59 54 54 53 53 53 53 53 53 53 56 54 52 52 52 52 52 52 53 53 54 55 55 57 54 51 51 51 51 54 55 57 57
51 52 53 53 54 54 55 56 56 57 57 58 58 58 58 58 59 59 58 58 58 58 59 58 58 59 56 56 56 56 57 58 57 57 57 55 55 55 54 54 55 54 53 54 55 55 55 57 56 55 55 57 60 53 53 53 53 53 54 54 53 53 53 55 54 53 53 52 52 52 52 52 52 52 53 54 54 53 50 49 51 52 50 53 56
51 52 52 53 54 54 55 56 56 56 57 57 58 59 58 58 58 59 59 58 59 58 59 59 58 58 57 56 56 56 56 56 56 57 56 55 55 56 55 54 54 54 53 55 54 54 55 60 58 55 56 61 60 53 52 52 54 53 53 52 53 53 54 53 54 54 53 53 52 52 52 52 51 51 52 53 52 50 50 49 51 52 52 53 55
51 52 52 52 54 55 55 56 56 56 56 57 58 58 59 59 58 58 58 58 58 59 59 59 59 58 58 57 57 57 57 57 57 57 57 56 56 56 55 54 54 54 53 53 53 53 57 56 58 56 57 53 53 53 53 53 55 54 53 55 53 52 53 55 52 53 53 53 52 52 53 53 53 53 53 54 53 53 51 50 50 52 52 53 54
51 51 51 52 53 53 54 55 55 55 56 56 57 58 58 58 58 58 58 58 58 59 59 59 59 59 59 58 58 58 57 57 57 57 57 57 56 56 55 54 54 54 53 52 52 53 55 56 55 55 54 56 57 53 53 54 53 53 54 53 53 53 53 53 53 53 53 53 53 53 53 53 53 53 53 54 53 53 52 51 51 52 51 50 53
50 51 51 52 52 53 53 54 55 55 55 56 56 57 57 58 58 58 59 58 58 58 59 59 59 59 59 59 59 59 59 58 58 58 58 57 57 56 56 55 55 55 53 52 52 52 55 56 57 55 54 54 57 54 53 54 53 53 53 53 53 53 53 53 53 55 54 53 54 53 54 53 53 54 53 54 53 53 51 51 51 51 50 50 51
50 51 52 53 53 53 54 54 54 54 55 55 55 56 57 57 58 59 59 59 58 58 58 59 59 59 59 60 60 59 59 59 59 59 58 58 57 57 56 56 55 55 53 52 53 53 54 55 55 55 54 54 55 55 56 56 55 56 55 54 56 55 53 55 52 53 53 52 53 54 56 53 53 53 53 54 54 54 53 53 52 50 50 49 51
50 51 51 52 53 52 53 54 54 54 54 54 55 55 56 57 57 58 59 59 58 59 59 59 59 59 59 59 60 60 61 60 60 60 60 58 58 57 57 56 56 56 54 53 53 54 53 54 55 55 54 53 54 54 54 54 54 54 53 53 52 56 55 53 52 52 52 52 52 53 53 53 53 53 54 55 55 55 55 54 53 52 50 47 50
50 51 51 52 52 52 53 53 54 54 55 55 55 55 56 57 57 57 58 58 58 59 59 59 59 59 59 59 60 60 60 60 60 60 59 59 59 58 58 57 56 55 54 54 52 53 53 53 53 54 54 53 53 54 54 54 53 53 54 53 52 52 54 53 53 52 52 52 53 52 53 54 54 55 54 55 56 56 55 54 54 53 52 51 50
50 51 51 52 52 53 53 53 54 54 55 55 55 55 55 56 57 57 57 58 58 58 59 59 59 59 59 59 59 60 60 60 60 60 60 59 59 59 58 57 57 56 56 54 53 52 53 57 54 53 53 53 53 53 53 53 53 53 52 52 52 52 53 53 54 54 54 53 55 54 53 53 53 54 55 56 56 56 55 55 55 54 54 53 52
49 50 50 51 51 52 53 53 54 54 55 55 56 55 55 55 56 57 57 57 58 58 58 59 59 59 59 59 59 59 60 60 60 60 60 59 59 59 58 58 57 57 58 57 54 52 53 53 54 53 53 53 53 53 53 53 53 53 53 53 52 52 52 52 52 53 53 55 55 54 53 53 53 54 54 55 56 56 56 55 55 55 55 54 53
48 49 50 51 51 51 52 53 53 53 53 54 55 55 55 56 56 57 57 57 57 57 58 59 59 59 60 59 59 60 60 60 60 60 59 59 60 59 59 58 57 58 58 59 57 54 52 52 52 52 52 52 52 52 53 53 53 53 53 53 53 52 52 52 52 53 53 53 54 53 53 53 53 53 54 55 55 56 56 55 56 55 55 55 54
48 49 49 50 50 50 51 51 52 52 53 55 54 55 55 56 56 56 56 56 56 56 57 58 59 59 59 59 59 59 59 60 60 60 59 59 59 60 59 59 59 57 58 59 58 57 53 52 51 52 52 52 51 51 52 53 53 53 53 52 52 52 52 52 53 53 53 53 53 52 52 52 52 53 54 53 54 55 55 55 56 55 55 55 55
48 48 48 49 49 49 49 49 49 49 50 50 52 54 55 55 56 56 56 55 55 55 56 57 58 59 58 59 59 59 59 59 59 59 60 60 59 59 59 59 58 57 58 58 57 57 56 53 51 50 51 52 51 51 51 52 52 52 52 52 52 52 52 52 52 51 52 52 52 52 52 51 51 52 53 53 52 54 54 54 53 54 54 55 55
47 47 48 48 49 49 49 49 48 47 47 49 50 52 54 55 55 55 55 55 55 55 55 56 57 58 58 59 59 58 58 58 58 59 59 59 59 59 59 59 59 58 58 57 57 57 56 54 52 52 51 51 51 51 51 51 52 51 51 51 52 52 52 52 51 51 51 51 51 52 52 52 53 53 52 53 52 53 54 54 54 54 54 55 55
46 47 48 48 48 48 48 47 47 47 47 48 49 50 52 53 54 54 54 54 54 54 55 55 56 57 58 57 58 58 57 57 57 58 58 58 58 59 59 59 59 58 58 58 58 57 56 55 53 52 52 51 51 50 50 50 50 51 51 50 51 51 51 51 51 50 50 51 51 51 51 51 52 52 52 51 51 52 53 54 54 53 55 55 55
45 46 47 47 47 47 47 47 47 47 47 48 48 50 50 51 53 53 54 54 54 54 54 54 55 56 56 56 56 56 56 56 56 57 57 57 57 58 58 58 58 58 58 58 59 58 57 55 54 53 52 51 50 49 48 49 49 50 50 50 50 50 51 50 50 50 53 52 50 50 50 50 51 51 51 51 51 51 52 53 53 53 53 54 55
44 45 46 46 46 47 47 47 46 47 47 48 48 49 50 51 51 53 53 53 54 54 54 54 55 55 55 55 55 55 55 56 56 56 56 57 57 57 57 58 59 58 58 58 58 57 57 56 54 53 52 52 51 50 49 48 48 49 50 50 50 50 50 49 49 50 50 51 51 50 50 51 50 51 51 51 51 51 51 52 52 53 53 53 54
44 45 45 46 46 46 46 46 46 47 48 49 49 50 50 51 51 51 52 52 53 54 54 54 54 54 54 54 54 54 55 55 56 56 56 56 57 57 57 58 59 59 58 57 57 56 57 56 55 54 53 53 52 51 50 50 49 49 49 49 50 50 49 49 49 49 49 49 49 50 51 51 51 51 51 51 51 51 52 52 53 52 52 53 54
45 44 44 44 44 45 46 46 46 47 47 48 48 49 50 50 50 50 51 52 53 53 54 54 54 54 54 54 54 54 55 55 55 55 56 56 57 57 58 58 59 58 58 58 57 57 56 57 56 55 54 54 54 52 51 50 50 50 50 50 49 50 49 49 49 49 49 49 49 50 50 51 51 51 52 52 52 52 51 51 52 52 52 52 53
44 44 44 44 44 44 45 45 46 47 46 47 47 48 49 50 51 51 51 51 52 53 54 54 54 53 53 54 54 54 53 54 55 55 55 56 56 57 58 58 59 59 59 58 58 57 57 56 56 56 55 55 54 54 53 52 51 50 50 49 49 49 49 49 48 47 48 48 49 50 50 50 53 55 55 54 53 54 52 52 52 52 52 52 52
43 43 43 44 44 45 45 45 45 45 45 46 46 47 49 49 50 50 50 51 52 53 53 53 53 53 53 53 53 53 53 53 54 54 55 56 56 57 58 58 58 59 59 59 58 58 57 57 56 56 55 55 54 54 55 55 54 52 50 49 49 49 49 48 48 47 47 47 48 49 52 54 55 55 55 56 54 54 56 55 54 52 52 52 52
43 44 44 44 45 45 45 45 46 46 46 46 47 47 48 49 50 50 50 51 52 52 52 52 53 53 53 53 52 51 52 53 53 54 55 55 56 57 58 58 58 58 58 59 59 58 57 57 56 56 56 55 55 54 53 48 47 49 52 50 49 49 48 48 47 47 46 47 47 47 48 51 54 54 57 54 50 49 50 53 53 54 54 53 52
42 43 43 43 44 44 44 44 45 46 46 47 47 47 48 48 49 49 49 51 52 52 51 51 52 52 52 52 51 51 51 52 53 53 54 55 56 56 57 57 58 58 58 58 58 58 58 57 57 56 56 55 55 54 48 47 46 45 50 52 50 49 49 48 47 46 46 47 47 47 48 49 50 51 50 49 50 50 48 48 47 48 48 49 50
43 43 44 43 43 43 44 44 45 45 45 46 47 47 47 47 48 48 49 51 51 52 51 51 51 51 51 51 51 51 50 51 52 53 53 55 55 55 56 56 57 57 57 57 57 57 57 57 57 56 56 56 55 51 47 46 45 45 44 51 50 49 48 48 47 46 45 46 47 48 47 48 47 52 53 53 50 50 52 51 50 50 50 47 43
44 44 43 44 44 44 44 44 45 45 46 47 49 47 47 48 48 49 49 49 50 51 52 51 51 51 51 51 51 51 50 50 51 52 53 53 54 54 55 56 56 56 56 56 56 56 56 56 56 56 55 55 55 53 47 46 45 44 43 45 50 49 48 47 47 46 46 46 47 47 47 47 48 49 51 52 52 51 50 49 50 50 51 52 50
43 43 43 44 44 44 45 46 47 48 48 48 48 49 49 49 49 49 50 49 49 50 51 51 51 51 51 51 51 51 50 50 50 50 51 52 53 54 54 54 55 55 55 55 55 55 55 55 55 55 54 54 54 50 47 46 45 44 43 44 50 50 49 48 48 48 47 47 47 47 47 47 47 47 48 49 48 48 48 48 48 49 49 50 51
42 43 43 43 44 45 45 45 49 50 50 50 49 50 50 49 50 50 50 50 50 49 49 50 50 51 51 51 51 51 51 50 50 49 49 50 51 52 53 54 54 54 55 55 55 54 54 54 54 54 54 54 54 48 46 45 45 44 43 49 50 50 50 49 48 48 47 47 48 47 47 47 47 46 49 46 49 49 47 47 48 49 49 50 50
44 44 44 45 45 45 46 48 47 48 48 49 50 50 50 50 50 51 51 50 50 49 49 49 50 49 50 50 50 50 50 50 50 49 49 49 49 50 52 53 53 53 53 54 54 54 54 54 54 53 53 53 53 50 46 45 45 44 44 49 50 50 50 49 49 49 48 48 48 48 47 46 47 47 46 41 42 51 50 49 48 48 49 49 49
45 45 45 45 45 45 46 48 48 48 48 48 48 49 49 49 50 50 49 49 50 50 50 50 49 49 49 49 49 49 49 50 49 49 48 48 49 49 50 52 52 51 52 52 53 53 53 54 53 53 53 53 53 51 47 45 44 44 48 50 50 50 50 50 50 50 49 48 48 52 51 47 47 46 43 41 40 48 48 48 48 48 48 49 48
46 46 47 47 47 47 49 48 47 48 48 49 48 48 48 48 49 49 49 48 48 48 49 49 49 49 49 50 50 50 49 49 49 49 49 49 48 49 49 50 51 51 51 51 52 52 52 52 53 53 55 54 53 52 47 45 44 44 46 50 50 50 49 49 49 49 49 49 48 51 53 51 48 47 42 41 41 48 48 47 47 48 48 48 48
47 48 48 49 49 48 47 47 48 48 49 50 50 50 51 51 51 49 48 49 49 49 49 49 49 49 49 49 50 50 50 49 48 49 49 49 49 49 49 49 49 50 50 50 51 51 51 51 51 52 52 54 53 53 51 46 44 44 44 50 50 50 49 49 49 49 49 49 48 48 50 46 45 44 42 40 40 42 47 48 48 48 48 48 49
47 48 50 49 48 48 47 47 48 49 50 50 51 50 50 50 51 50 49 50 50 50 50 50 50 50 49 49 49 49 49 50 50 49 49 50 50 49 49 49 49 49 49 50 50 50 50 50 50 51 51 51 52 52 52 46 45 44 43 47 50 50 50 50 49 49 49 49 48 48 48 46 43 43 43 42 40 40 44 48 48 48 48 49 48
47 48 48 48 47 46 46 46 47 48 49 50 50 47 48 49 49 48 48 50 51 51 51 51 51 50 51 50 50 50 50 50 50 50 49 49 50 50 50 50 49 49 49 49 49 50 50 50 50 50 50 51 52 54 52 48 45 44 43 43 49 50 50 50 50 49 48 48 48 48 48 47 43 42 42 43 42 41 40 50 50 44 43 42 49
45 45 47 47 45 45 45 45 46 46 47 48 47 46 46 47 46 46 48 49 50 51 51 51 51 51 52 52 52 52 51 51 51 51 50 49 49 49 49 50 50 49 49 49 49 49 49 49 49 50 50 51 51 51 49 51 47 45 43 42 43 47 45 53 51 49 49 49 49 49 49 49 43 41 41 41 42 42 43 46 44 43 42 41 45
45 45 46 47 45 45 45 45 46 46 46 47 47 46 47 47 46 47 48 49 49 50 50 51 51 51 51 52 52 53 52 52 52 52 51 50 50 50 50 50 49 49 48 48 48 48 48 48 48 48 49 50 51 52 49 47 48 45 44 42 41 42 43 49 50 50 50 50 50 50 49 44 43 42 41 40 40 41 43 42 41 41 41 42 47
44 44 45 46 45 45 46 46 47 47 47 47 47 47 47 46 47 48 48 49 49 49 50 50 51 51 51 52 52 52 52 52 52 51 51 51 50 50 49 49 49 49 49 48 47 47 47 48 48 48 49 49 50 51 51 48 44 45 44 43 41 41 41 42 48 50 50 51 47 44 43 42 42 41 41 40 40 41 39 40 39 39 45 47 46
44 45 45 45 46 46 47 46 46 47 47 47 47 47 46 47 48 48 49 49 50 50 50 50 51 51 51 51 51 51 52 52 52 51 51 51 50 50 50 49 49 49 49 48 48 48 49 48 48 49 49 49 50 50 50 51 50 49 47 43 42 42 44 43 44 47 45 44 43 43 41 41 41 42 44 45 44 44 40 39 39 41 46 46 45
44 45 45 47 46 46 46 45 44 45 46 47 46 46 47 47 47 48 49 50 50 49 49 49 49 49 49 49 49 49 49 49 49 49 50 50 51 51 50 50 49 49 49 49 48 48 49 49 49 49 50 50 50 50 50 51 51 51 52 52 49 47 45 44 45 46 45 46 46 46 46 44 43 42 42 43 42 43 43 43 43 44 44 45 45
45 45 46 46 45 44 44 43 43 44 45 46 46 46 47 47 47 48 48 48 47 47 47 46 47 47 46 47 46 46 46 45 46 46 45 46 46 47 48 48 49 50 50 50 49 49 49 49 49 50 50 50 50 50 50 51 51 51 51 51 52 52 51 51 48 48 48 49 49 46 45 46 46 45 45 44 44 45 45 43 44 44 44 44 45
45 45 45 44 44 43 43 43 43 43 44 45 45 46 47 47 47 48 47 47 46 45 46 46 46 46 46 46 46 45 45 45 44 44 45 47 46 44 44 45 47 50 51 50 50 50 51 51 50 50 50 50 49 49 50 46 49 45 48 52 51 51 52 52 52 46 51 48 48 48 46 47 46 46 46 45 45 45 44 43 44 44 44 44 43
45 45 43 43 45 43 42 42 41 42 42 44 45 46 47 47 47 47 47 47 47 46 45 45 46 45 45 45 45 45 45 44 44 44 44 44 42 42 42 45 45 42 40 40 44 48 49 49 49 49 50 50 49 49 45 43 42 41 41 42 44 45 46 49 48 44 47 49 48 48 47 47 46 46 46 46 45 46 44 43 43 41 43 43 43
44 42 42 43 43 45 43 41 40 42 41 42 44 45 46 47 47 47 47 46 46 46 45 45 45 45 44 44 44 44 45 44 44 45 44 42 42 46 41 40 40 41 40 40 39 38 38 38 44 45 45 41 41 41 40 40 40 40 40 40 41 41 42 43 43 46 48 48 48 46 47 47 47 47 46 47 46 45 44 44 44 43 43 42 42